AFL101 UUEE-ULLI

Flight info

Callsign AFL101
Flight time N/A
Altitude 32000
Route TOKNU3J TOKNU L4 NUDKO T561 ODATI T875 GENPA GENPA1B
Aircraft B38M/M-SDE1FGHILORVWXY/HB1

Departure

Time 2026-05-04 17:55
Airport Sheremetyevo International Airport (UUEE)

Arrival

Time N/A
Airport Pulkovo Airport (ULLI)
Time Latitude Longitude Altitude Speed Heading
2026-05-04 17:26 55.97928 37.42139 641 ft 0 kts 255°
2026-05-04 17:31 55.97928 37.42140 641 ft 0 kts 255°
2026-05-04 17:46 55.97925 37.42125 642 ft 2 kts 253°
2026-05-04 17:46 55.97924 37.42117 641 ft 2 kts 253°
2026-05-04 17:47 55.97914 37.42074 643 ft 6 kts 242°
2026-05-04 17:47 55.97879 37.42041 641 ft 7 kts 171°
2026-05-04 17:47 55.97828 37.42068 641 ft 9 kts 164°
2026-05-04 17:47 55.97755 37.42101 641 ft 13 kts 167°
2026-05-04 17:48 55.97687 37.42202 641 ft 15 kts 86°
2026-05-04 17:48 55.97714 37.42390 641 ft 17 kts 76°
2026-05-04 17:48 55.97745 37.42600 641 ft 18 kts 77°
2026-05-04 17:48 55.97759 37.42776 643 ft 9 kts 132°
2026-05-04 17:49 55.97727 37.42797 641 ft 0 kts 165°
2026-05-04 17:52 55.97719 37.42800 642 ft 2 kts 166°
2026-05-04 17:53 55.97695 37.42812 641 ft 5 kts 163°
2026-05-04 17:53 55.97657 37.42841 645 ft 7 kts 145°
2026-05-04 17:53 55.97611 37.42830 645 ft 8 kts 223°
2026-05-04 17:53 55.97589 37.42736 642 ft 10 kts 255°
2026-05-04 17:54 55.97552 37.42494 642 ft 35 kts 254°
2026-05-04 17:54 55.97431 37.41679 648 ft 98 kts 255°
2026-05-04 17:54 55.97208 37.40199 642 ft 148 kts 254°
2026-05-04 17:54 55.96879 37.38233 794 ft 172 kts 252°
2026-05-04 17:55 55.96454 37.36230 1223 ft 184 kts 243°
2026-05-04 17:55 55.95841 37.34162 1726 ft 192 kts 241°
2026-05-04 17:55 55.95127 37.32061 2343 ft 194 kts 230°
2026-05-04 17:55 55.94235 37.30154 2910 ft 212 kts 229°
2026-05-04 17:56 55.93278 37.28021 3537 ft 224 kts 232°
2026-05-04 17:56 55.92335 37.25821 4440 ft 224 kts 234°
2026-05-04 17:56 55.91707 37.24317 5039 ft 225 kts 236°
2026-05-04 17:56 55.90481 37.21326 6178 ft 226 kts 236°
2026-05-04 17:57 55.89543 37.19011 6685 ft 235 kts 236°
2026-05-04 17:57 55.88596 37.16550 6738 ft 249 kts 238°
2026-05-04 17:57 55.87625 37.13896 6938 ft 260 kts 239°
2026-05-04 17:57 55.86743 37.11058 6950 ft 262 kts 253°
2026-05-04 17:58 55.86251 37.07914 7039 ft 267 kts 257°
2026-05-04 17:58 55.86297 37.04677 7603 ft 267 kts 286°
2026-05-04 17:58 55.86904 37.01535 7746 ft 268 kts 287°
2026-05-04 17:58 55.87469 36.98366 7878 ft 269 kts 286°
2026-05-04 17:59 55.87833 36.96259 7959 ft 269 kts 286°
2026-05-04 17:59 55.88557 36.91986 8006 ft 270 kts 285°
2026-05-04 17:59 55.89440 36.86654 8011 ft 270 kts 285°
2026-05-04 18:00 55.89967 36.83439 8011 ft 270 kts 285°
2026-05-04 18:00 55.90494 36.80229 8016 ft 271 kts 287°
2026-05-04 18:00 55.91483 36.77404 8560 ft 272 kts 316°
2026-05-04 18:00 55.93081 36.75525 9322 ft 283 kts 332°
2026-05-04 18:01 55.94992 36.74490 10080 ft 289 kts 343°
2026-05-04 18:01 55.96981 36.73619 10632 ft 301 kts 343°
2026-05-04 18:01 55.99054 36.72681 11171 ft 313 kts 343°
2026-05-04 18:02 56.03306 36.70760 12763 ft 317 kts 342°
2026-05-04 18:02 56.05441 36.69797 13553 ft 320 kts 342°
2026-05-04 18:02 56.07617 36.68812 14293 ft 324 kts 342°
2026-05-04 18:02 56.09816 36.67818 15089 ft 328 kts 342°
2026-05-04 18:03 56.12049 36.66807 15703 ft 336 kts 342°
2026-05-04 18:03 56.14308 36.65783 15847 ft 334 kts 342°
2026-05-04 18:03 56.16563 36.64761 15874 ft 334 kts 342°
2026-05-04 18:03 56.18316 36.63965 15875 ft 334 kts 342°
2026-05-04 18:04 56.20577 36.62910 15885 ft 337 kts 339°
2026-05-04 18:04 56.22611 36.60870 16371 ft 337 kts 318°
2026-05-04 18:04 56.26152 36.55191 17707 ft 344 kts 315°
2026-05-04 18:05 56.27909 36.52286 18331 ft 348 kts 315°
2026-05-04 18:05 56.29694 36.49300 18958 ft 352 kts 315°
2026-05-04 18:05 56.31485 36.46279 19557 ft 355 kts 314°
2026-05-04 18:05 56.33293 36.43217 20165 ft 358 kts 314°
2026-05-04 18:06 56.36463 36.36342 21279 ft 360 kts 292°
2026-05-04 18:06 56.37409 36.32142 21796 ft 363 kts 291°
2026-05-04 18:06 56.38353 36.27889 22278 ft 368 kts 290°
2026-05-04 18:07 56.39291 36.23573 22770 ft 371 kts 289°
2026-05-04 18:07 56.40226 36.19205 23269 ft 374 kts 289°
2026-05-04 18:07 56.41158 36.14809 23770 ft 377 kts 289°
2026-05-04 18:07 56.42096 36.10370 24266 ft 379 kts 289°
2026-05-04 18:08 56.43037 36.05897 24724 ft 383 kts 289°
2026-05-04 18:08 56.43985 36.01384 25221 ft 385 kts 289°
2026-05-04 18:08 56.45014 35.96905 25654 ft 389 kts 297°
2026-05-04 18:08 56.46636 35.92966 26121 ft 393 kts 307°
2026-05-04 18:09 56.50121 35.85264 26940 ft 398 kts 307°
2026-05-04 18:09 56.53670 35.77507 27766 ft 402 kts 307°
2026-05-04 18:10 56.55456 35.73607 28142 ft 404 kts 307°
2026-05-04 18:10 56.57252 35.69684 28532 ft 406 kts 307°
2026-05-04 18:10 56.59054 35.65741 28906 ft 407 kts 307°
2026-05-04 18:10 56.60868 35.61766 29259 ft 409 kts 307°
2026-05-04 18:11 56.62689 35.57771 29614 ft 411 kts 306°
2026-05-04 18:11 56.64508 35.53777 30065 ft 409 kts 306°
2026-05-04 18:11 56.66319 35.49795 30531 ft 408 kts 306°
2026-05-04 18:11 56.68124 35.45817 30922 ft 408 kts 306°
2026-05-04 18:12 56.69928 35.41836 31333 ft 407 kts 306°
2026-05-04 18:12 56.71721 35.37872 31722 ft 407 kts 306°
2026-05-04 18:12 56.73521 35.33885 31857 ft 408 kts 306°
2026-05-04 18:12 56.75313 35.29912 31834 ft 405 kts 306°
2026-05-04 18:13 56.78879 35.21983 31834 ft 404 kts 306°
2026-05-04 18:14 56.84218 35.10062 31832 ft 404 kts 306°
2026-05-04 18:14 56.87731 35.02187 31831 ft 404 kts 306°
2026-05-04 18:15 56.91464 34.94375 31804 ft 408 kts 318°
2026-05-04 18:15 56.96189 34.88605 31805 ft 412 kts 322°
2026-05-04 18:16 57.00982 34.82810 31824 ft 413 kts 322°
2026-05-04 18:16 57.05705 34.77137 31815 ft 414 kts 322°
2026-05-04 18:17 57.12919 34.68451 31815 ft 413 kts 322°
2026-05-04 18:18 57.20145 34.59709 31812 ft 414 kts 322°
2026-05-04 18:18 57.24937 34.53890 31806 ft 415 kts 322°
2026-05-04 18:19 57.32169 34.45071 31805 ft 416 kts 322°
2026-05-04 18:19 57.36993 34.39166 31805 ft 416 kts 322°
2026-05-04 18:20 57.41766 34.33303 31806 ft 417 kts 321°
2026-05-04 18:20 57.46361 34.27642 31794 ft 417 kts 321°
2026-05-04 18:21 57.51186 34.21680 31796 ft 418 kts 321°
2026-05-04 18:21 57.56030 34.15674 31796 ft 418 kts 321°
2026-05-04 18:22 57.60875 34.09646 31788 ft 419 kts 321°
2026-05-04 18:22 57.65721 34.03599 31772 ft 419 kts 321°
2026-05-04 18:23 57.70566 33.97533 31760 ft 420 kts 321°
2026-05-04 18:23 57.75411 33.91447 31758 ft 420 kts 321°
2026-05-04 18:24 57.80221 33.85387 31749 ft 420 kts 321°
2026-05-04 18:24 57.84979 33.79376 31749 ft 420 kts 321°
2026-05-04 18:25 57.89578 33.72761 31751 ft 417 kts 315°
2026-05-04 18:25 57.94085 33.65894 31740 ft 417 kts 316°
2026-05-04 18:26 57.98603 33.59052 31738 ft 416 kts 316°
2026-05-04 18:26 58.03116 33.52202 31731 ft 416 kts 315°
2026-05-04 18:27 58.07631 33.45332 31730 ft 417 kts 315°
2026-05-04 18:27 58.12135 33.38453 31728 ft 417 kts 315°
2026-05-04 18:28 58.16636 33.31555 31720 ft 417 kts 315°
2026-05-04 18:28 58.21092 33.24670 31719 ft 415 kts 315°
2026-05-04 18:29 58.25565 33.17731 31710 ft 415 kts 315°
2026-05-04 18:29 58.29963 33.10891 31700 ft 395 kts 314°
2026-05-04 18:30 58.34133 33.04377 31005 ft 385 kts 314°
2026-05-04 18:30 58.36221 33.01106 30508 ft 396 kts 314°
2026-05-04 18:30 58.38387 32.97713 30015 ft 410 kts 314°
2026-05-04 18:31 58.40626 32.94197 29512 ft 424 kts 315°
2026-05-04 18:31 58.42918 32.90594 29033 ft 430 kts 315°
2026-05-04 18:31 58.45233 32.86946 28498 ft 432 kts 315°
2026-05-04 18:31 58.47544 32.83300 28027 ft 431 kts 315°
2026-05-04 18:32 58.49848 32.79657 27597 ft 429 kts 315°
2026-05-04 18:32 58.52132 32.76040 27128 ft 426 kts 315°
2026-05-04 18:32 58.54404 32.72435 26662 ft 423 kts 315°
2026-05-04 18:32 58.56660 32.68848 26218 ft 420 kts 315°
2026-05-04 18:33 58.58899 32.65285 25768 ft 418 kts 315°
2026-05-04 18:33 58.61126 32.61733 25319 ft 415 kts 314°
2026-05-04 18:33 58.63336 32.58202 24881 ft 412 kts 314°
2026-05-04 18:33 58.65531 32.54691 24451 ft 410 kts 314°
2026-05-04 18:34 58.67709 32.51199 24025 ft 408 kts 314°
2026-05-04 18:34 58.69879 32.47715 23600 ft 405 kts 314°
2026-05-04 18:34 58.72037 32.44244 23169 ft 403 kts 314°
2026-05-04 18:34 58.74177 32.40797 22746 ft 400 kts 314°
2026-05-04 18:35 58.76303 32.37366 22310 ft 398 kts 314°
2026-05-04 18:35 58.78414 32.33953 21854 ft 394 kts 314°
2026-05-04 18:35 58.80512 32.30555 21484 ft 393 kts 314°
2026-05-04 18:35 58.82596 32.27174 21083 ft 390 kts 314°
2026-05-04 18:36 58.84666 32.23812 20680 ft 387 kts 314°
2026-05-04 18:36 58.86715 32.20478 20277 ft 385 kts 314°
2026-05-04 18:36 58.88753 32.17156 19891 ft 382 kts 314°
2026-05-04 18:36 58.90779 32.13849 19491 ft 380 kts 314°
2026-05-04 18:37 58.92798 32.10547 19098 ft 378 kts 314°
2026-05-04 18:37 58.94796 32.07276 18699 ft 375 kts 313°
2026-05-04 18:37 58.96779 32.04023 18314 ft 372 kts 313°
2026-05-04 18:37 58.98749 32.00788 17924 ft 370 kts 313°
2026-05-04 18:38 59.00706 31.97567 17544 ft 368 kts 313°
2026-05-04 18:38 59.02647 31.94370 17168 ft 365 kts 313°
2026-05-04 18:38 59.04570 31.91195 16788 ft 363 kts 313°
2026-05-04 18:38 59.06484 31.88034 16414 ft 360 kts 313°
2026-05-04 18:39 59.08381 31.84893 16044 ft 357 kts 313°
2026-05-04 18:39 59.10265 31.81769 15687 ft 353 kts 311°
2026-05-04 18:39 59.12025 31.78474 15180 ft 351 kts 308°
2026-05-04 18:39 59.13760 31.75165 14744 ft 349 kts 308°
2026-05-04 18:40 59.15491 31.71883 14310 ft 347 kts 309°
2026-05-04 18:40 59.17221 31.68611 13842 ft 346 kts 309°
2026-05-04 18:40 59.18942 31.65356 13379 ft 344 kts 309°
2026-05-04 18:40 59.20658 31.62110 12911 ft 343 kts 309°
2026-05-04 18:41 59.22361 31.58883 12452 ft 341 kts 309°
2026-05-04 18:41 59.24056 31.55665 11979 ft 340 kts 309°
2026-05-04 18:41 59.25742 31.52470 11530 ft 334 kts 309°
2026-05-04 18:41 59.27376 31.49347 11025 ft 323 kts 308°
2026-05-04 18:42 59.28422 31.47342 10729 ft 315 kts 308°
2026-05-04 18:42 59.30448 31.43446 10210 ft 296 kts 308°
2026-05-04 18:42 59.31413 31.41596 9948 ft 288 kts 308°
2026-05-04 18:42 59.32831 31.38867 9569 ft 283 kts 307°
2026-05-04 18:43 59.34657 31.35351 9079 ft 272 kts 307°
2026-05-04 18:43 59.35977 31.32804 8721 ft 263 kts 308°
2026-05-04 18:43 59.36843 31.31138 8483 ft 256 kts 307°
2026-05-04 18:43 59.38496 31.27934 8023 ft 252 kts 307°
2026-05-04 18:44 59.39344 31.26289 7802 ft 254 kts 307°
2026-05-04 18:44 59.40178 31.24671 7584 ft 254 kts 307°
2026-05-04 18:44 59.41851 31.21425 7114 ft 253 kts 307°
2026-05-04 18:44 59.43105 31.18993 6772 ft 254 kts 307°
2026-05-04 18:45 59.44385 31.16605 6527 ft 253 kts 309°
2026-05-04 18:45 59.45659 31.14313 6443 ft 243 kts 309°
2026-05-04 18:45 59.46873 31.12115 6368 ft 232 kts 308°
2026-05-04 18:45 59.48060 31.09946 6310 ft 237 kts 309°
2026-05-04 18:46 59.49298 31.07691 6258 ft 246 kts 309°
2026-05-04 18:46 59.50553 31.05407 6152 ft 243 kts 309°
2026-05-04 18:46 59.51777 31.03173 5963 ft 237 kts 309°
2026-05-04 18:46 59.52977 31.00978 5715 ft 234 kts 309°
2026-05-04 18:47 59.54148 30.98836 5468 ft 232 kts 309°
2026-05-04 18:47 59.55339 30.96656 5210 ft 231 kts 309°
2026-05-04 18:47 59.56496 30.94533 4941 ft 229 kts 309°
2026-05-04 18:47 59.57672 30.92373 4669 ft 228 kts 309°
2026-05-04 18:48 59.58803 30.90289 4424 ft 224 kts 309°
2026-05-04 18:48 59.59938 30.88210 4230 ft 220 kts 310°
2026-05-04 18:48 59.61052 30.86163 3974 ft 217 kts 310°
2026-05-04 18:48 59.62138 30.84163 3843 ft 210 kts 310°
2026-05-04 18:49 59.63205 30.82190 3833 ft 210 kts 310°
2026-05-04 18:49 59.64283 30.80199 3811 ft 210 kts 310°
2026-05-04 18:49 59.65336 30.78255 3734 ft 209 kts 310°
2026-05-04 18:49 59.66409 30.76268 3615 ft 208 kts 310°
2026-05-04 18:50 59.67431 30.74378 3493 ft 198 kts 310°
2026-05-04 18:50 59.68405 30.72571 3353 ft 186 kts 310°
2026-05-04 18:50 59.69326 30.70864 3207 ft 177 kts 310°
2026-05-04 18:50 59.70220 30.69207 3099 ft 176 kts 310°
2026-05-04 18:51 59.71103 30.67546 2903 ft 175 kts 311°
2026-05-04 18:51 59.71993 30.65901 2653 ft 174 kts 311°
2026-05-04 18:51 59.72874 30.64266 2461 ft 174 kts 312°
2026-05-04 18:51 59.73762 30.62614 2347 ft 177 kts 312°
2026-05-04 18:52 59.74665 30.60929 2218 ft 178 kts 313°
2026-05-04 18:52 59.75533 30.59192 2059 ft 176 kts 304°
2026-05-04 18:52 59.76109 30.57151 2010 ft 161 kts 289°
2026-05-04 18:52 59.76428 30.55116 2051 ft 147 kts 283°
2026-05-04 18:53 59.76693 30.53247 2026 ft 135 kts 284°
2026-05-04 18:53 59.76952 30.51481 1984 ft 132 kts 284°
2026-05-04 18:53 59.77209 30.49718 1955 ft 133 kts 284°
2026-05-04 18:53 59.77462 30.47955 1795 ft 132 kts 284°
2026-05-04 18:54 59.77718 30.46199 1652 ft 133 kts 284°
2026-05-04 18:54 59.77973 30.44427 1491 ft 134 kts 284°
2026-05-04 18:54 59.78227 30.42643 1324 ft 134 kts 284°
2026-05-04 18:54 59.78481 30.40850 1152 ft 136 kts 284°
2026-05-04 18:55 59.78732 30.39013 987 ft 140 kts 284°